Location: Serin Observatory
(40.5200°N, 74.4500°W)
Time: 15:58:08
(UTC+00:00)

SL-8 R/B - Visible Passes

Search period start: 28 April 2015 00:00
Search period end: 08 May 2015 00:00
Orbit: 658 x 668 km, 48.4° (Epoch: 28 April)

Date Brightness Start Highest point End Pass type
(mag) Time Alt. Az. Time Alt. Az. Time Alt. Az.
28 Apr 5.9 05:43:52 22° NE 05:43:52 22° NE 05:45:43 10° NE visible
28 Apr 5.3 07:21:51 19° NW 07:24:24 31° N 07:28:41 10° ENE visible
28 Apr 4.6 09:03:04 10° NW 09:07:43 49° NNE 09:12:23 10° E visible
29 Apr 5.3 06:13:31 33° N 06:13:31 33° N 06:17:15 10° NE visible
29 Apr 5.2 07:51:53 10° NW 07:56:18 35° N 08:00:43 10° ENE visible
30 Apr 6.3 05:05:12 15° NE 05:05:12 15° NE 05:06:02 10° NE visible
30 Apr 5.3 06:43:11 25° NNW 06:44:46 31° N 06:49:03 10° ENE visible
30 Apr 4.5 08:23:22 10° NW 08:28:03 51° NNE 08:32:44 10° E visible
01 May 5.6 05:34:52 26° NNE 05:34:52 26° NNE 05:37:35 10° ENE visible
01 May 5.1 07:12:51 13° NW 07:16:39 36° NNE 07:21:05 10° E visible
01 May 3.7 08:54:48 10° WNW 08:59:36 88° SSW 09:04:24 10° ESE visible
02 May 5.3 06:04:36 30° N 06:05:08 31° N 06:09:24 10° ENE visible
02 May 4.4 07:43:42 10° NW 07:48:24 54° NNE 07:53:06 10° E visible
02 May 4.2 09:26:25 10° WNW 09:30:55 40° SW 09:35:22 10° SSE visible
03 May 4.7 01:24:11 10° SSW 01:27:26 26° SSE 01:27:26 26° SSE visible
03 May 6.3 03:05:42 10° WSW 03:05:43 10° WSW 03:05:43 10° WSW visible
03 May 6.0 04:56:28 18° NE 04:56:28 18° NE 04:57:55 10° ENE visible
03 May 5.1 06:34:28 22° NW 06:37:00 37° NNE 06:41:27 10° E visible
03 May 3.6 08:15:07 10° WNW 08:19:55 83° SSW 08:24:42 10° SE visible
04 May 3.6 01:54:39 10° SW 01:59:21 62° SE 02:01:45 28° ENE visible
04 May 5.4 03:37:34 10° W 03:48:40 - ENE 03:40:02 27° WNW visible
04 May 5.5 05:26:42 28° NNE 05:26:42 28° NNE 05:29:46 10° ENE visible
04 May 4.3 07:04:45 14° NW 07:08:43 56° NNE 07:13:25 10° ESE visible
04 May 4.2 08:46:47 10° WNW 08:51:12 37° SW 08:55:35 10° SSE visible
05 May 4.5 00:44:21 10° SSW 00:48:26 29° SE 00:52:35 10° ENE visible
05 May 4.0 02:26:02 10° WSW 02:30:47 67° NNW 02:35:21 11° ENE visible
05 May 5.3 04:09:37 10° WNW 04:20:05 - ENE 04:13:31 32° NNW visible
05 May 5.1 05:58:16 34° NE 05:58:16 34° NE 06:01:49 10° E visible
05 May 3.5 07:36:27 16° WNW 07:40:13 78° SSW 07:45:00 10° SE visible
05 May 5.2 09:19:21 10° W 09:22:16 16° SW 09:25:02 10° SSW visible
06 May 3.6 01:14:55 10° SW 01:19:39 67° SE 01:24:24 10° ENE visible
06 May 4.9 02:57:55 10° W 03:02:27 41° NNW 03:06:49 11° NE visible
06 May 5.5 04:41:33 10° WNW 04:44:51 29° NNW 04:44:51 29° NNW visible
06 May 5.5 06:31:55 23° E 06:31:55 23° E 06:33:46 10° ESE visible
06 May 4.2 08:10:13 30° WSW 08:11:29 35° SW 08:15:47 10° SSE visible
07 May 4.1 01:46:22 10° WSW 01:51:06 63° NNW 01:55:52 10° ENE visible
07 May 5.3 03:29:59 10° WNW 03:34:17 32° N 03:37:02 18° NE visible
07 May 5.8 05:13:10 10° NW 05:15:02 21° NW 05:15:02 21° NW visible
07 May 5.6 08:44:30 11° SSW 08:44:30 11° SSW 08:45:00 10° SSW visible
